COSMOS 1275 DEB, 42113

Orbit data source: Space-Track

COSMOS 1275 DEB, 42113 is space debris in LEO originally from a launch on Thu, 04 Jun 1981 UTC launched from the Plesetsk Missile And Space Complex (PKMTR). Debris objects in space refer to the collection of defunct objects orbiting the Earth. Examples of debris include non-operational satellites, rocket bodies, and fragments generated from explosions, collisions, or faulty payload assembly.

Loading next visibility...
Identifier
42113, 1981-053PZ
Orbit
LEO
Country
Flag of CISCIS
Related business
Manufacturer
Unknown
Mission
Spacecraft
Bus & Motor
Unknown
Mass
Unknown
Launch date (UTC)
1981-06-04 (45 years ago)
Launch vehicle
Unknown
Launch site
Plesetsk Missile And Space Complex (PKMTR)
Object type
Payload
Rocket body
Debris
Shape & HBR
Unknown shape, 0.1 m
Radar Cross Section
Small (<0.1 m²)

Expand to show TLE details & history
Last TLE update: 3 days ago

TLE from 3 days ago
0 COSMOS 1275 DEB
1 42113U 81053PZ  25338.37956472  .00001929  00000-0  17962-2 0  9990
2 42113  82.7482  23.8811 0195446 147.0790 231.2981 13.73374500601257
Epoch: 2025-12-04T09:06Z
TLE epoch observation values (Epoch: 2025-12-04T09:06:34.391Z)
Latitude
16.50185°
Longitude
175.95029°
Altitude
1,081.45 km
Speed
7.267 km/s
True Right ascension
01h 44m 07s
True Declination
16° 24' 45"
Sunlit
Object was in full shadow at epoch
Visualization orbit readout
Latitude
Unknown
Longitude
Unknown
Altitude
Unknown
Speed
Unknown
Apparent Right ascension
Unknown
Apparent Declination
Unknown
Sunlit
N/A
Visualization observer readout
Local Sidereal Time
05:25:06
Azimuth
Unknown
Elevation
Unknown
Doppler factor
Unknown
Orbital elements
Apogee altitude
1,128.54 km
Perigee altitude
840.735 km
Semi-major axis
7,362.775 km
Eccentricity
0.01954
Inclination
82.7482°
RAAN
23.8811°
Arg. of periapsis
147.079°
True anomaly
229.57683°
Mean anomaly
231.2981°
Eccentric anomaly
230.43483°
Mean motion
3.43543 °/min
Orbital period
104.79 mins
BSTAR
0.0017962
Loading maneuver chart data...
Computing Atmospheric mass density...
Loading historical data...
Loading historical data...
Loading historical data...
Loading historical data...
Loading historical data...
Loading historical data...
Loading historical data...

Documentation

Showing up to 5 results
|